Location: Newark
(52.4787°S, 179.0532°W)
Time: 13:55:34
(UTC+00:00)

Transit 2A Rocket - Pass Details

Date: 23 November 2019
Orbit: 594 x 909 km, 66.7° (Epoch: 13 December)

Event Time Altitude Azimuth Distance (km) Brightness Sun altitude
Rises 04:11:52 0° 221° (SW) 3,572 8.9 29.7°
Reaches altitude 10° 04:14:27 10° 217° (SW) 2,628 8.3 29.3°
Maximum altitude 04:20:36 66° 135° (SE) 992 5.8 28.3°
Drops below altitude 10° 04:26:29 10° 52° (NE) 2,519 7.3 27.4°
Sets 04:28:55 0° 49° (NE) 3,413 8.0 27.1°
